| time (UTC) | temp C | wind direction | speed KPH | gust KPH | rain 1hr cm | rain 24hr cm | rain mn cm | humidity % | barometer mb |
| 20260502220306 | 22 | 40 | 8.0 | 14.5 | 0.00 | 0.00 | 0.00 | 34 | 1035.6 |
| 20260502215806 | 21 | 17 | 12.9 | 19.3 | 0.00 | 0.00 | 0.00 | 33 | 1035.6 |
| 20260502215306 | 21 | 44 | 16.1 | 25.7 | 0.00 | 0.00 | 0.00 | 32 | 1035.6 |
| 20260502214813 | 21 | 36 | 19.3 | 22.5 | 0.00 | 0.00 | 0.00 | 32 | 1035.6 |
| 20260502213807 | 22 | 41 | 14.5 | 33.8 | 0.00 | 0.00 | 0.00 | 32 | 1035.6 |
| 20260502213307 | 22 | 63 | 12.9 | 25.7 | 0.00 | 0.00 | 0.00 | 33 | 1035.6 |
| 20260502212806 | 22 | 64 | 20.9 | 29.0 | 0.00 | 0.00 | 0.00 | 32 | 1035.6 |
| 20260502211806 | 22 | 34 | 11.3 | 22.5 | 0.00 | 0.00 | 0.00 | 31 | 1035.6 |
| 20260502211306 | 23 | 46 | 4.8 | 19.3 | 0.00 | 0.00 | 0.00 | 30 | 1035.6 |
| 20260502210806 | 23 | 59 | 19.3 | 19.3 | 0.00 | 0.00 | 0.00 | 31 | 1035.6 |
| 20260502210306 | 23 | 53 | 14.5 | 19.3 | 0.00 | 0.00 | 0.00 | 30 | 1035.6 |
| 20260502205806 | 23 | 52 | 19.3 | 20.9 | 0.00 | 0.00 | 0.00 | 28 | 1035.6 |
| 20260502205306 | 23 | 33 | 19.3 | 20.9 | 0.00 | 0.00 | 0.00 | 26 | 1035.6 |
| 20260502204806 | 23 | 43 | 11.3 | 14.5 | 0.00 | 0.00 | 0.00 | 26 | 1035.6 |
| 20260502204307 | 23 | 38 | 14.5 | 20.9 | 0.00 | 0.00 | 0.00 | 27 | 1035.6 |
| 20260502203806 | 23 | 33 | 16.1 | 32.2 | 0.00 | 0.00 | 0.00 | 26 | 1035.6 |
| 20260502203306 | 23 | 8 | 17.7 | 24.1 | 0.00 | 0.00 | 0.00 | 27 | 1035.6 |
| 20260502202806 | 22 | 5 | 24.1 | 24.1 | 0.00 | 0.00 | 0.00 | 27 | 1035.6 |
| 20260502202306 | 22 | 43 | 12.9 | 20.9 | 0.00 | 0.00 | 0.00 | 28 | 1035.6 |
| 20260502201305 | 22 | 40 | 16.1 | 19.3 | 0.00 | 0.00 | 0.00 | 28 | 1035.6 |
| 20260502200806 | 22 | 32 | 9.7 | 16.1 | 0.00 | 0.00 | 0.00 | 27 | 1035.6 |
| 20260502195306 | 23 | 75 | 14.5 | 16.1 | 0.00 | 0.00 | 0.00 | 27 | 1035.6 |
| 20260502194806 | 23 | 43 | 19.3 | 19.3 | 0.00 | 0.00 | 0.00 | 29 | 1035.6 |
| 20260502194306 | 23 | 353 | 9.7 | 19.3 | 0.00 | 0.00 | 0.00 | 26 | 1035.6 |
| 20260502193806 | 23 | 343 | 8.0 | 12.9 | 0.00 | 0.00 | 0.00 | 26 | 1035.6 |
| 20260502192806 | 23 | 329 | 11.3 | 14.5 | 0.00 | 0.00 | 0.00 | 25 | 1035.6 |
| 20260502192306 | 23 | 5 | 14.5 | 22.5 | 0.00 | 0.00 | 0.00 | 25 | 1035.6 |
| 20260502191806 | 23 | 14 | 19.3 | 22.5 | 0.00 | 0.00 | 0.00 | 25 | 1035.6 |
| 20260502191306 | 23 | 24 | 4.8 | 8.0 | 0.00 | 0.00 | 0.00 | 25 | 1035.6 |
| 20260502190806 | 23 | 21 | 11.3 | 19.3 | 0.00 | 0.00 | 0.00 | 25 | 1035.6 |
| 20260502190306 | 23 | 57 | 11.3 | 16.1 | 0.00 | 0.00 | 0.00 | 29 | 1035.6 |
| 20260502185806 | 22 | 23 | 11.3 | 14.5 | 0.00 | 0.00 | 0.00 | 26 | 1035.6 |
| 20260502185306 | 23 | 320 | 3.2 | 3.2 | 0.00 | 0.00 | 0.00 | 26 | 1035.6 |
| 20260502184806 | 22 | 320 | 4.8 | 22.5 | 0.00 | 0.00 | 0.00 | 26 | 1035.6 |
| 20260502184306 | 22 | 12 | 8.0 | 12.9 | 0.00 | 0.00 | 0.00 | 26 | 1035.6 |
| 20260502183806 | 22 | 38 | 9.7 | 14.5 | 0.00 | 0.00 | 0.00 | 26 | 1035.6 |
| 20260502183306 | 22 | 317 | 14.5 | 14.5 | 0.00 | 0.00 | 0.00 | 26 | 1035.6 |
| 20260502182806 | 22 | 317 | 14.5 | 20.9 | 0.00 | 0.00 | 0.00 | 26 | 1035.6 |
| 20260502182306 | 22 | 0 | 9.7 | 11.3 | 0.00 | 0.00 | 0.00 | 27 | 1035.6 |
| 20260502181305 | 22 | 342 | 3.2 | 8.0 | 0.00 | 0.00 | 0.00 | 25 | 1035.6 |
| 20260502180806 | 22 | 349 | 6.4 | 8.0 | 0.00 | 0.00 | 0.00 | 25 | 1035.6 |
| 20260502180305 | 22 | 293 | 4.8 | 12.9 | 0.00 | 0.00 | 0.00 | 25 | 1035.6 |
| 20260502170306 | 20 | 220 | 14.5 | 20.9 | 0.00 | 0.00 | 0.00 | 27 | 1035.6 |
| 20260502164306 | 19 | 247 | 9.7 | 14.5 | 0.00 | 0.00 | 0.00 | 28 | 1035.6 |
| 20260502163805 | 19 | 227 | 16.1 | 22.5 | 0.00 | 0.00 | 0.00 | 29 | 1035.6 |
| 20260502163306 | 18 | 222 | 14.5 | 20.9 | 0.00 | 0.00 | 0.00 | 31 | 1035.6 |
| 20260502162806 | 18 | 234 | 9.7 | 22.5 | 0.00 | 0.00 | 0.00 | 31 | 1035.6 |
| 20260502161806 | 17 | 227 | 12.9 | 22.5 | 0.00 | 0.00 | 0.00 | 30 | 1035.6 |
| 20260502161307 | 17 | 205 | 16.1 | 19.3 | 0.00 | 0.00 | 0.00 | 31 | 1035.6 |
| 20260502152306 | 15 | 218 | 14.5 | 20.9 | 0.00 | 0.00 | 0.00 | 34 | 1035.6 |
| 20260502151806 | 15 | 238 | 12.9 | 22.5 | 0.00 | 0.00 | 0.00 | 36 | 1035.6 |
| 20260502151306 | 15 | 217 | 16.1 | 20.9 | 0.00 | 0.00 | 0.00 | 38 | 1035.6 |
| 20260502150806 | 14 | 232 | 19.3 | 22.5 | 0.00 | 0.00 | 0.00 | 38 | 1035.6 |
| 20260502123805 | 7 | 0 | 0.0 | 0.0 | 0.00 | 0.00 | 0.00 | 53 | 1035.6 |
| 20260502123305 | 7 | 0 | 0.0 | 9.7 | 0.00 | 0.00 | 0.00 | 53 | 1035.6 |
| 20260502122306 | 7 | 213 | 9.7 | 9.7 | 0.00 | 0.00 | 0.00 | 53 | 1035.6 |
| 20260502121305 | 7 | 213 | 12.9 | 14.5 | 0.00 | 0.00 | 0.00 | 53 | 1035.6 |
| 20260502120805 | 7 | 222 | 11.3 | 19.3 | 0.00 | 0.00 | 0.00 | 52 | 1035.6 |
| 20260502115805 | 7 | 226 | 11.3 | 16.1 | 0.00 | 0.00 | 0.00 | 50 | 1035.6 |
| 20260502114805 | 7 | 255 | 11.3 | 12.9 | 0.00 | 0.00 | 0.00 | 50 | 1035.6 |
| 20260502114305 | 7 | 271 | 4.8 | 11.3 | 0.00 | 0.00 | 0.00 | 51 | 1035.6 |
| 20260502113805 | 8 | 269 | 8.0 | 11.3 | 0.00 | 0.00 | 0.00 | 51 | 1035.6 |
| 20260502112805 | 8 | 246 | 9.7 | 11.3 | 0.00 | 0.00 | 0.00 | 50 | 1035.6 |
| 20260502112306 | 8 | 238 | 9.7 | 14.5 | 0.00 | 0.00 | 0.00 | 50 | 1035.6 |
| 20260502111805 | 8 | 230 | 11.3 | 19.3 | 0.00 | 0.00 | 0.00 | 50 | 1035.6 |
| 20260502111305 | 8 | 229 | 14.5 | 16.1 | 0.00 | 0.00 | 0.00 | 50 | 1035.6 |
| 20260502110805 | 8 | 233 | 9.7 | 9.7 | 0.00 | 0.00 | 0.00 | 50 | 1035.6 |
| 20260502110305 | 8 | 231 | 12.9 | 20.9 | 0.00 | 0.00 | 0.00 | 50 | 1035.6 |
| 20260502105805 | 8 | 234 | 14.5 | 14.5 | 0.00 | 0.00 | 0.00 | 50 | 1035.6 |
| 20260502105306 | 8 | 234 | 14.5 | 19.3 | 0.00 | 0.00 | 0.00 | 50 | 1035.6 |
| 20260502104805 | 8 | 228 | 12.9 | 14.5 | 0.00 | 0.00 | 0.00 | 50 | 1035.6 |
| 20260502104305 | 8 | 228 | 9.7 | 14.5 | 0.00 | 0.00 | 0.00 | 50 | 1035.6 |
| 20260502103805 | 8 | 221 | 8.0 | 12.9 | 0.00 | 0.00 | 0.00 | 50 | 1035.6 |
| 20260502103305 | 8 | 229 | 8.0 | 12.9 | 0.00 | 0.00 | 0.00 | 51 | 1035.6 |
| 20260502102805 | 8 | 237 | 11.3 | 16.1 | 0.00 | 0.00 | 0.00 | 51 | 1035.6 |
| 20260502101805 | 7 | 220 | 12.9 | 16.1 | 0.00 | 0.00 | 0.00 | 53 | 1035.6 |
| 20260502100805 | 7 | 232 | 9.7 | 12.9 | 0.00 | 0.00 | 0.00 | 54 | 1035.6 |
| 20260502100306 | 7 | 222 | 12.9 | 12.9 | 0.00 | 0.00 | 0.00 | 55 | 1035.6 |
| 20260502091305 | 7 | 214 | 11.3 | 14.5 | 0.00 | 0.00 | 0.00 | 52 | 1035.6 |
| 20260502090805 | 7 | 214 | 11.3 | 14.5 | 0.00 | 0.00 | 0.00 | 52 | 1035.6 |
| 20260502090305 | 7 | 216 | 9.7 | 14.5 | 0.00 | 0.00 | 0.00 | 52 | 1035.6 |
| 20260502071305 | 8 | 196 | 8.0 | 9.7 | 0.00 | 0.00 | 0.00 | 50 | 1035.6 |
| 20260502070805 | 8 | 195 | 3.2 | 3.2 | 0.00 | 0.00 | 0.00 | 50 | 1035.6 |
| 20260502065805 | 8 | 196 | 3.2 | 4.8 | 0.00 | 0.00 | 0.00 | 51 | 1035.6 |
| 20260502065306 | 8 | 195 | 3.2 | 4.8 | 0.00 | 0.00 | 0.00 | 51 | 1035.6 |
| 20260502064806 | 8 | 195 | 4.8 | 9.7 | 0.00 | 0.00 | 0.00 | 51 | 1035.6 |
| 20260502064305 | 8 | 195 | 4.8 | 9.7 | 0.00 | 0.00 | 0.00 | 51 | 1035.6 |
| 20260502063305 | 8 | 195 | 4.8 | 4.8 | 0.00 | 0.00 | 0.00 | 51 | 1035.6 |
| 20260502062805 | 8 | 195 | 4.8 | 8.0 | 0.00 | 0.00 | 0.00 | 51 | 1035.6 |
| 20260502062306 | 8 | 196 | 6.4 | 8.0 | 0.00 | 0.00 | 0.00 | 51 | 1035.6 |
| 20260502061805 | 8 | 196 | 6.4 | 8.0 | 0.00 | 0.00 | 0.00 | 53 | 1035.6 |
| 20260502061304 | 8 | 195 | 3.2 | 4.8 | 0.00 | 0.00 | 0.00 | 56 | 1035.6 |
| 20260502060804 | 9 | 195 | 1.6 | 4.8 | 0.00 | 0.00 | 0.00 | 56 | 1035.6 |
| 20260502055805 | 9 | 195 | 1.6 | 3.2 | 0.00 | 0.00 | 0.00 | 55 | 1035.6 |
| 20260502055306 | 9 | 195 | 1.6 | 4.8 | 0.00 | 0.00 | 0.00 | 50 | 1035.6 |
| 20260502054804 | 10 | 195 | 0.0 | 3.2 | 0.00 | 0.00 | 0.00 | 50 | 1035.6 |
| 20260502054304 | 10 | 195 | 0.0 | 1.6 | 0.00 | 0.00 | 0.00 | 47 | 1035.6 |
| 20260502053804 | 10 | 195 | 0.0 | 1.6 | 0.00 | 0.00 | 0.00 | 46 | 1035.6 |
| 20260502052805 | 10 | 195 | 0.0 | 3.2 | 0.00 | 0.00 | 0.00 | 45 | 1035.6 |
| 20260502052306 | 11 | 195 | 3.2 | 3.2 | 0.00 | 0.00 | 0.00 | 44 | 1035.6 |
| 20260502051806 | 11 | 195 | 1.6 | 3.2 | 0.00 | 0.00 | 0.00 | 43 | 1035.6 |
| 20260502051304 | 11 | 195 | 0.0 | 0.0 | 0.00 | 0.00 | 0.00 | 43 | 1035.6 |
| 20260502050804 | 11 | 195 | 0.0 | 0.0 | 0.00 | 0.00 | 0.00 | 43 | 1035.6 |
| 20260502045306 | 12 | 195 | 1.6 | 1.6 | 0.00 | 0.00 | 0.00 | 41 | 1035.6 |
| 20260502044805 | 12 | 195 | 1.6 | 3.2 | 0.00 | 0.00 | 0.00 | 40 | 1035.6 |
| 20260502044305 | 12 | 195 | 3.2 | 8.0 | 0.00 | 0.00 | 0.00 | 40 | 1035.6 |
| 20260502043805 | 12 | 195 | 1.6 | 4.8 | 0.00 | 0.00 | 0.00 | 42 | 1035.6 |
| 20260502043305 | 12 | 195 | 0.0 | 1.6 | 0.00 | 0.00 | 0.00 | 42 | 1035.6 |
| 20260502042306 | 12 | 195 | 1.6 | 4.8 | 0.00 | 0.00 | 0.00 | 44 | 1035.6 |
| 20260502041804 | 12 | 195 | 3.2 | 4.8 | 0.00 | 0.00 | 0.00 | 44 | 1035.6 |
| 20260502040305 | 12 | 195 | 1.6 | 3.2 | 0.00 | 0.00 | 0.00 | 47 | 1035.6 |
| 20260502035805 | 13 | 195 | 1.6 | 3.2 | 0.00 | 0.00 | 0.00 | 47 | 1035.6 |
| 20260502035306 | 13 | 195 | 1.6 | 1.6 | 0.00 | 0.00 | 0.00 | 40 | 1035.6 |
| 20260502034805 | 13 | 195 | 0.0 | 1.6 | 0.00 | 0.00 | 0.00 | 40 | 1035.6 |
| 20260502034305 | 13 | 195 | 1.6 | 3.2 | 0.00 | 0.00 | 0.00 | 39 | 1035.6 |
| 20260502033804 | 14 | 195 | 3.2 | 3.2 | 0.00 | 0.00 | 0.00 | 38 | 1035.6 |
| 20260502033305 | 14 | 195 | 1.6 | 3.2 | 0.00 | 0.00 | 0.00 | 38 | 1035.6 |
| 20260502032306 | 15 | 195 | 3.2 | 3.2 | 0.00 | 0.00 | 0.00 | 36 | 1035.6 |
| 20260502031805 | 15 | 195 | 3.2 | 8.0 | 0.00 | 0.00 | 0.00 | 35 | 1035.6 |
| 20260502024804 | 18 | 202 | 3.2 | 4.8 | 0.00 | 0.00 | 0.00 | 27 | 1035.6 |
| 20260502024304 | 18 | 229 | 1.6 | 4.8 | 0.00 | 0.00 | 0.00 | 24 | 1035.6 |
| 20260502023804 | 19 | 229 | 1.6 | 1.6 | 0.00 | 0.00 | 0.00 | 24 | 1035.6 |
| 20260502023304 | 19 | 229 | 1.6 | 3.2 | 0.00 | 0.00 | 0.00 | 24 | 1035.6 |
| 20260502022804 | 20 | 229 | 3.2 | 3.2 | 0.00 | 0.00 | 0.00 | 23 | 1035.6 |
| 20260502022306 | 20 | 229 | 1.6 | 4.8 | 0.00 | 0.00 | 0.00 | 22 | 1035.6 |
| 20260502021305 | 20 | 229 | 3.2 | 4.8 | 0.00 | 0.00 | 0.00 | 21 | 1035.6 |
| 20260502020804 | 21 | 229 | 6.4 | 8.0 | 0.00 | 0.00 | 0.00 | 20 | 1035.6 |
| 20260502020305 | 21 | 229 | 4.8 | 4.8 | 0.00 | 0.00 | 0.00 | 20 | 1035.6 |
| 20260502015804 | 21 | 229 | 3.2 | 4.8 | 0.00 | 0.00 | 0.00 | 20 | 1035.6 |
| 20260502014804 | 22 | 225 | 3.2 | 8.0 | 0.00 | 0.00 | 0.00 | 20 | 1035.6 |
| 20260502014304 | 22 | 214 | 0.0 | 4.8 | 0.00 | 0.00 | 0.00 | 20 | 1035.6 |
| 20260502013804 | 22 | 214 | 1.6 | 1.6 | 0.00 | 0.00 | 0.00 | 19 | 1035.6 |
| 20260502013305 | 22 | 214 | 4.8 | 8.0 | 0.00 | 0.00 | 0.00 | 20 | 1035.6 |
| 20260502012804 | 22 | 214 | 8.0 | 9.7 | 0.00 | 0.00 | 0.00 | 20 | 1035.6 |
| 20260502012306 | 22 | 214 | 0.0 | 8.0 | 0.00 | 0.00 | 0.00 | 19 | 1035.6 |
| 20260502011804 | 22 | 206 | 8.0 | 8.0 | 0.00 | 0.00 | 0.00 | 20 | 1035.6 |
| 20260502010804 | 22 | 205 | 4.8 | 14.5 | 0.00 | 0.00 | 0.00 | 22 | 1035.6 |
| 20260502010304 | 22 | 207 | 3.2 | 4.8 | 0.00 | 0.00 | 0.00 | 19 | 1035.6 |
| 20260502005804 | 22 | 207 | 3.2 | 4.8 | 0.00 | 0.00 | 0.00 | 20 | 1035.6 |
| 20260502005306 | 22 | 208 | 3.2 | 8.0 | 0.00 | 0.00 | 0.00 | 19 | 1035.6 |
| 20260502004804 | 22 | 208 | 6.4 | 9.7 | 0.00 | 0.00 | 0.00 | 19 | 1035.6 |
| 20260502004304 | 22 | 217 | 6.4 | 11.3 | 0.00 | 0.00 | 0.00 | 21 | 1035.6 |
| 20260502003804 | 23 | 288 | 9.7 | 9.7 | 0.00 | 0.00 | 0.00 | 18 | 1035.6 |
| 20260502003304 | 23 | 270 | 11.3 | 16.1 | 0.00 | 0.00 | 0.00 | 19 | 1035.6 |
| 20260502002804 | 23 | 267 | 4.8 | 4.8 | 0.00 | 0.00 | 0.00 | 19 | 1035.6 |
| 20260502002305 | 23 | 303 | 4.8 | 4.8 | 0.00 | 0.00 | 0.00 | 18 | 1035.6 |
| 20260502001304 | 23 | 291 | 9.7 | 19.3 | 0.00 | 0.00 | 0.00 | 19 | 1035.6 |
| 20260502000804 | 23 | 254 | 14.5 | 19.3 | 0.00 | 0.00 | 0.00 | 19 | 1035.6 |
| 20260502000306 | 23 | 239 | 12.9 | 16.1 | 0.00 | 0.00 | 0.00 | 18 | 1035.6 |
| 20260501235806 | 23 | 338 | 6.4 | 19.3 | 0.00 | 0.00 | 0.00 | 19 | 1035.6 |
| 20260501235306 | 23 | 313 | 4.8 | 8.0 | 0.00 | 0.00 | 0.00 | 18 | 1035.6 |
| 20260501234806 | 23 | 311 | 9.7 | 9.7 | 0.00 | 0.00 | 0.00 | 18 | 1035.6 |
| 20260501234306 | 23 | 302 | 4.8 | 8.0 | 0.00 | 0.00 | 0.00 | 20 | 1035.6 |
| 20260501233806 | 23 | 289 | 3.2 | 8.0 | 0.00 | 0.00 | 0.00 | 21 | 1035.6 |
| 20260501233306 | 23 | 233 | 0.0 | 4.8 | 0.00 | 0.00 | 0.00 | 21 | 1035.6 |
| 20260501232806 | 23 | 238 | 0.0 | 8.0 | 0.00 | 0.00 | 0.00 | 20 | 1035.6 |
| 20260501232306 | 23 | 243 | 8.0 | 11.3 | 0.00 | 0.00 | 0.00 | 20 | 1035.6 |
| 20260501231806 | 23 | 254 | 9.7 | 16.1 | 0.00 | 0.00 | 0.00 | 20 | 1035.6 |
| 20260501230806 | 23 | 186 | 11.3 | 11.3 | 0.00 | 0.00 | 0.00 | 21 | 1035.6 |
| 20260501230306 | 23 | 224 | 11.3 | 14.5 | 0.00 | 0.00 | 0.00 | 21 | 1035.6 |
| 20260501225807 | 23 | 234 | 14.5 | 14.5 | 0.00 | 0.00 | 0.00 | 21 | 1035.6 |
| 20260501225307 | 23 | 207 | 6.4 | 16.1 | 0.00 | 0.00 | 0.00 | 21 | 1035.6 |
| 20260501224807 | 23 | 245 | 16.1 | 22.5 | 0.00 | 0.00 | 0.00 | 21 | 1035.6 |
| 20260501223806 | 23 | 19 | 9.7 | 11.3 | 0.00 | 0.00 | 0.00 | 18 | 1035.6 |
| 20260501223307 | 23 | 0 | 11.3 | 19.3 | 0.00 | 0.00 | 0.00 | 19 | 1035.6 |
| 20260501222806 | 23 | 251 | 0.0 | 4.8 | 0.00 | 0.00 | 0.00 | 21 | 1035.6 |
| 20260501222307 | 23 | 251 | 4.8 | 14.5 | 0.00 | 0.00 | 0.00 | 20 | 1035.6 |
| 20260501221806 | 23 | 262 | 8.0 | 14.5 | 0.00 | 0.00 | 0.00 | 21 | 1035.6 |